,,,PA_Meas_PMT16A,,PR_Meas_QMR101_102,,RH_Meas_QMH101,,SR_Meas_QMS101,,TA_Meas_QMH101,,GenWind,,GenWind,
date,time,status,PA,status,PR,status,RH,status,SR,status,TA,status,DirAvg,status,SpdAvg,
2008-11-19, 00:00:04,VALID,1002.77,VALID,0,VALID,94.209,VALID,0,VALID,24.1513,VALID,354,VALID,0,
2008-11-19, 00:01:04,VALID,1002.8,VALID,0,VALID,94.1785,VALID,0,VALID,24.1105,VALID,354,VALID,0,
2008-11-19, 00:02:04,VALID,1002.77,VALID,0,VALID,94.1099,VALID,0,VALID,24.1123,VALID,354,VALID,0,
2008-11-19, 00:03:04,VALID,1002.74,VALID,0,VALID,94.1328,VALID,0,VALID,24.0929,VALID,354,VALID,0,
2008-11-19, 00:04:04,VALID,1002.75,VALID,0,VALID,94.148,VALID,0,VALID,24.0929,VALID,354,VALID,0,
2008-11-19, 00:05:04,VALID,1002.74,VALID,0,VALID,94.1709,VALID,0,VALID,24.0521,VALID,354,VALID,0,
2008-11-19, 00:06:04,VALID,1002.72,VALID,0,VALID,94.1938,VALID,0,VALID,24.0947,VALID,354,VALID,0,
2008-11-19, 00:07:04,VALID,1002.72,VALID,0,VALID,94.2777,VALID,0,VALID,24.0734,VALID,354,VALID,0,
2008-11-19, 00:08:04,VALID,1002.7,VALID,0,VALID,94.3616,VALID,0,VALID,24.0734,VALID,354,VALID,0,
2008-11-19, 00:09:04,VALID,1002.69,VALID,0,VALID,94.3006,VALID,0,VALID,24.0929,VALID,354,VALID,0,
2008-11-19, 00:10:04,VALID,1002.69,VALID,0,VALID,94.3692,VALID,0.100563,VALID,24.0716,VALID,354,VALID,0,
2008-11-19, 00:11:04,VALID,1002.66,VALID,0,VALID,94.4532,VALID,0,VALID,24.1105,VALID,354,VALID,0.374219,
2008-11-19, 00:12:04,VALID,1002.61,VALID,0,VALID,94.3921,VALID,0,VALID,24.13,VALID,354,VALID,0.473437,
2008-11-19, 00:13:04,VALID,1002.58,VALID,0,VALID,94.209,VALID,0,VALID,24.1123,VALID,354,VALID,0.431641,
2008-11-19, 00:14:04,VALID,1002.57,VALID,0,VALID,94.0946,VALID,0,VALID,24.0521,VALID,349,VALID,0.515234,
2008-11-19, 00:15:04,VALID,1002.56,VALID,0,VALID,94.1328,VALID,0.100563,VALID,24.0539,VALID,347,VALID,0.4875,
2008-11-19, 00:16:04,VALID,1002.54,VALID,0,VALID,94.2319,VALID,0.100563,VALID,24.0521,VALID,348,VALID,0.472266,
2008-11-19, 00:17:04,VALID,1002.52,VALID,0,VALID,94.2472,VALID,0,VALID,24.0326,VALID,349,VALID,0.498437,
2008-11-19, 00:18:05,VALID,1002.5,VALID,0,VALID,94.2396,VALID,0.100563,VALID,24.0521,VALID,349,VALID,0.420312,
2008-11-19, 00:19:05,VALID,1002.46,VALID,0,VALID,94.2319,VALID,0,VALID,24.0326,VALID,349,VALID,0.491797,
2008-11-19, 00:20:05,VALID,1002.46,VALID,0,VALID,94.293,VALID,0,VALID,24.0734,VALID,349,VALID,0.388672,
2008-11-19, 00:21:05,VALID,1002.42,VALID,0,VALID,94.3464,VALID,0,VALID,24.0716,VALID,349,VALID,0.276563,
2008-11-19, 00:22:05,VALID,1002.39,VALID,0,VALID,94.3769,VALID,0,VALID,24.0521,VALID,349,VALID,0.409375,
2008-11-19, 00:23:05,VALID,1002.34,VALID,0,VALID,94.415,VALID,0,VALID,24.0734,VALID,349,VALID,0.346094,
2008-11-19, 00:24:05,VALID,1002.35,VALID,0,VALID,94.4532,VALID,0,VALID,24.0734,VALID,349,VALID,0.328516,
2008-11-19, 00:25:05,VALID,1002.32,VALID,0,VALID,94.4837,VALID,0,VALID,24.0521,VALID,349,VALID,0.350781,
2008-11-19, 00:26:05,VALID,1002.32,VALID,0,VALID,94.4761,VALID,0,VALID,24.0929,VALID,349,VALID,0.407813,
2008-11-19, 00:27:05,VALID,1002.28,VALID,0,VALID,94.4761,VALID,0,VALID,24.0521,VALID,349,VALID,0.330859,
2008-11-19, 00:28:05,VALID,1002.29,VALID,0,VALID,94.4684,VALID,0,VALID,24.0734,VALID,349,VALID,0.196484,
2008-11-19, 00:29:05,VALID,1002.24,VALID,0,VALID,94.4608,VALID,0,VALID,24.0734,VALID,349,VALID,0.156641,
2008-11-19, 00:30:05,VALID,1002.18,VALID,0,VALID,94.4837,VALID,0,VALID,24.0539,VALID,349,VALID,0.271094,
2008-11-19, 00:31:05,VALID,1002.13,VALID,0,VALID,94.4837,VALID,0,VALID,24.0326,VALID,349,VALID,0.245703,
2008-11-19, 00:32:05,VALID,1002.09,VALID,0,VALID,94.4837,VALID,0,VALID,24.0539,VALID,349,VALID,0.171484,
2008-11-19, 00:33:05,VALID,1002.07,VALID,0,VALID,94.4684,VALID,0,VALID,24.0132,VALID,349,VALID,0.309375,
2008-11-19, 00:34:05,VALID,1002.06,VALID,0,VALID,94.4761,VALID,0,VALID,23.9937,VALID,349,VALID,0.422266,
2008-11-19, 00:35:05,VALID,1002.02,VALID,0,VALID,94.4532,VALID,0,VALID,24.015,VALID,349,VALID,0.314453,
2008-11-19, 00:36:05,VALID,1001.99,VALID,0,VALID,94.4761,VALID,0,VALID,23.9955,VALID,349,VALID,0.433594,
2008-11-19, 00:37:05,VALID,1001.99,VALID,0,VALID,94.4913,VALID,0,VALID,23.9955,VALID,349,VALID,0.433594,
2008-11-19, 00:38:05,VALID,1001.95,VALID,0,VALID,94.5142,VALID,0,VALID,23.9955,VALID,349,VALID,0.439453,
2008-11-19, 00:39:05,VALID,1001.9,VALID,0,VALID,94.5447,VALID,0,VALID,23.9761,VALID,349,VALID,0.335156,
2008-11-19, 00:40:05,VALID,1001.9,VALID,0,VALID,94.5752,VALID,0,VALID,23.9955,VALID,349,VALID,0.442578,
2008-11-19, 00:41:05,VALID,1001.87,VALID,0,VALID,94.5752,VALID,0,VALID,23.9761,VALID,349,VALID,0.292188,
2008-11-19, 00:42:05,VALID,1001.85,VALID,0,VALID,94.6057,VALID,0.100563,VALID,23.9761,VALID,349,VALID,0.355469,
2008-11-19, 00:43:05,VALID,1001.82,VALID,0,VALID,94.6057,VALID,0,VALID,23.9548,VALID,349,VALID,0.3,
2008-11-19, 00:44:05,VALID,1001.83,VALID,0,VALID,94.6134,VALID,0,VALID,23.9761,VALID,348,VALID,0.485156,
2008-11-19, 00:45:05,VALID,1001.81,VALID,0,VALID,94.5752,VALID,0,VALID,23.9761,VALID,348,VALID,0.505469,
2008-11-19, 00:46:05,VALID,1001.8,VALID,0,VALID,94.5829,VALID,0,VALID,23.9761,VALID,348,VALID,0.554688,
2008-11-19, 00:47:05,VALID,1001.79,VALID,0,VALID,94.56,VALID,0,VALID,23.9548,VALID,348,VALID,0.498828,
2008-11-19, 00:48:05,VALID,1001.8,VALID,0,VALID,94.4913,VALID,0,VALID,23.9353,VALID,348,VALID,0.525,
2008-11-19, 00:49:05,VALID,1001.75,VALID,0,VALID,94.4989,VALID,0,VALID,23.9353,VALID,348,VALID,0.50625,
2008-11-19, 00:50:05,VALID,1001.76,VALID,0,VALID,94.4761,VALID,0,VALID,23.9159,VALID,348,VALID,0.466797,
2008-11-19, 00:51:05,VALID,1001.73,VALID,0,VALID,94.5676,VALID,0,VALID,23.9371,VALID,348,VALID,0.578906,
2008-11-19, 00:52:05,VALID,1001.74,VALID,0,VALID,94.6057,VALID,0,VALID,23.9159,VALID,348,VALID,0.425,
2008-11-19, 00:53:05,VALID,1001.72,VALID,0,VALID,94.5752,VALID,0,VALID,23.9159,VALID,348,VALID,0.365234,
2008-11-19, 00:54:05,VALID,1001.72,VALID,0,VALID,94.6057,VALID,0,VALID,23.9177,VALID,348,VALID,0.309766,
2008-11-19, 00:55:05,VALID,1001.72,VALID,0,VALID,94.6363,VALID,0,VALID,23.9371,VALID,348,VALID,0.366406,
2008-11-19, 00:56:05,VALID,1001.72,VALID,0,VALID,94.6439,VALID,0,VALID,23.9371,VALID,348,VALID,0.469922,
2008-11-19, 00:57:05,VALID,1001.75,VALID,0,VALID,94.6591,VALID,0,VALID,23.9177,VALID,348,VALID,0.45,
2008-11-19, 00:58:05,VALID,1001.71,VALID,0,VALID,94.6591,VALID,0.100563,VALID,23.9371,VALID,348,VALID,0.372656,
2008-11-19, 00:59:05,VALID,1001.69,VALID,0,VALID,94.6744,VALID,0,VALID,23.9177,VALID,348,VALID,0.352344,
2008-11-19, 01:00:05,VALID,1001.65,VALID,0,VALID,94.6515,VALID,0,VALID,23.8964,VALID,348,VALID,0.498828,
2008-11-19, 01:01:05,VALID,1001.63,VALID,0,VALID,94.6591,VALID,0,VALID,23.8982,VALID,348,VALID,0.538672,
2008-11-19, 01:02:05,VALID,1001.6,VALID,0,VALID,94.682,VALID,0,VALID,23.8769,VALID,348,VALID,0.49375,
2008-11-19, 01:03:05,VALID,1001.59,VALID,0,VALID,94.7202,VALID,0,VALID,23.8769,VALID,348,VALID,0.354297,
2008-11-19, 01:04:05,VALID,1001.58,VALID,0,VALID,94.7431,VALID,0,VALID,23.8982,VALID,348,VALID,0.196484,
2008-11-19, 01:05:05,VALID,1001.55,VALID,0,VALID,94.7354,VALID,0,VALID,23.8769,VALID,348,VALID,0.208203,
2008-11-19, 01:06:05,VALID,1001.56,VALID,0,VALID,94.7202,VALID,0,VALID,23.8787,VALID,348,VALID,0.298047,
2008-11-19, 01:07:05,VALID,1001.52,VALID,0,VALID,94.7812,VALID,0,VALID,23.8575,VALID,348,VALID,0.362891,
2008-11-19, 01:08:05,VALID,1001.53,VALID,0,VALID,94.766,VALID,0,VALID,23.8575,VALID,348,VALID,0.167187,
2008-11-19, 01:09:05,VALID,1001.52,VALID,0,VALID,94.6591,VALID,0,VALID,23.838,VALID,348,VALID,0,
2008-11-19, 01:10:05,VALID,1001.51,VALID,0,VALID,94.6439,VALID,0.100563,VALID,23.8185,VALID,348,VALID,0,
2008-11-19, 01:11:05,VALID,1001.47,VALID,0,VALID,94.6744,VALID,0,VALID,23.8398,VALID,348,VALID,0,
2008-11-19, 01:12:05,VALID,1001.44,VALID,0,VALID,94.6744,VALID,0,VALID,23.8203,VALID,348,VALID,0,
2008-11-19, 01:13:05,VALID,1001.39,VALID,0,VALID,94.6973,VALID,0,VALID,23.8203,VALID,348,VALID,0,
2008-11-19, 01:14:05,VALID,1001.36,VALID,0,VALID,94.7888,VALID,0,VALID,23.8185,VALID,348,VALID,0,
2008-11-19, 01:15:05,VALID,1001.36,VALID,0,VALID,94.8194,VALID,0,VALID,23.838,VALID,348,VALID,0.36875,
2008-11-19, 01:16:05,VALID,1001.32,VALID,0,VALID,94.8346,VALID,0,VALID,23.8593,VALID,348,VALID,0.369141,
2008-11-19, 01:17:05,VALID,1001.28,VALID,0,VALID,94.8041,VALID,0,VALID,23.8593,VALID,348,VALID,0.492188,
2008-11-19, 01:18:05,VALID,1001.29,VALID,0,VALID,94.8499,VALID,0,VALID,23.838,VALID,348,VALID,0.367578,
2008-11-19, 01:19:05,VALID,1001.29,VALID,0,VALID,94.8575,VALID,0,VALID,23.838,VALID,348,VALID,0.25625,
2008-11-19, 01:20:05,VALID,1001.28,VALID,0,VALID,94.7965,VALID,0,VALID,23.838,VALID,348,VALID,0.367188,
2008-11-19, 01:21:05,VALID,1001.26,VALID,0,VALID,94.7888,VALID,0,VALID,23.8593,VALID,348,VALID,0.312891,
2008-11-19, 01:22:05,VALID,1001.3,VALID,0,VALID,94.7888,VALID,0.100563,VALID,23.8185,VALID,348,VALID,0.412891,
2008-11-19, 01:23:05,VALID,1001.31,VALID,0,VALID,94.8117,VALID,0,VALID,23.838,VALID,348,VALID,0.417578,
2008-11-19, 01:24:05,VALID,1001.33,VALID,0,VALID,94.8041,VALID,0,VALID,23.8398,VALID,348,VALID,0.431641,
2008-11-19, 01:25:05,VALID,1001.33,VALID,0,VALID,94.8194,VALID,0,VALID,23.8203,VALID,348,VALID,0.455859,
2008-11-19, 01:26:05,VALID,1001.34,VALID,0,VALID,94.8117,VALID,0,VALID,23.8203,VALID,348,VALID,0.425391,
2008-11-19, 01:27:05,VALID,1001.38,VALID,0,VALID,94.7965,VALID,0,VALID,23.8009,VALID,348,VALID,0.442187,
2008-11-19, 01:28:05,VALID,1001.36,VALID,0,VALID,94.8499,VALID,0,VALID,23.7991,VALID,348,VALID,0.36875,
2008-11-19, 01:29:05,VALID,1001.37,VALID,0,VALID,94.8651,VALID,0,VALID,23.7796,VALID,348,VALID,0.185937,
2008-11-19, 01:30:05,VALID,1001.35,VALID,0,VALID,94.8575,VALID,0,VALID,23.7991,VALID,348,VALID,0.277734,
2008-11-19, 01:31:05,VALID,1001.34,VALID,0,VALID,94.888,VALID,0,VALID,23.8203,VALID,348,VALID,0.449609,
2008-11-19, 01:32:05,VALID,1001.34,VALID,0,VALID,94.8956,VALID,0,VALID,23.8203,VALID,348,VALID,0.391797,
2008-11-19, 01:33:05,VALID,1001.33,VALID,0,VALID,94.8422,VALID,0,VALID,23.7796,VALID,348,VALID,0.414453,
2008-11-19, 01:34:05,VALID,1001.32,VALID,0,VALID,94.766,VALID,0.100563,VALID,23.7407,VALID,348,VALID,0.436719,
2008-11-19, 01:35:05,VALID,1001.3,VALID,0,VALID,94.7812,VALID,0,VALID,23.7619,VALID,348,VALID,0.426172,
2008-11-19, 01:36:05,VALID,1001.29,VALID,0,VALID,94.8499,VALID,0,VALID,23.7425,VALID,348,VALID,0.551172,
2008-11-19, 01:37:05,VALID,1001.32,VALID,0,VALID,94.8804,VALID,0,VALID,23.723,VALID,348,VALID,0.658203,
2008-11-19, 01:38:05,VALID,1001.32,VALID,0,VALID,94.8956,VALID,0,VALID,23.723,VALID,348,VALID,0.517187,
2008-11-19, 01:39:05,VALID,1001.33,VALID,0,VALID,94.9338,VALID,0,VALID,23.7443,VALID,348,VALID,0.514063,
2008-11-19, 01:40:05,VALID,1001.32,VALID,0,VALID,94.9567,VALID,0,VALID,23.723,VALID,348,VALID,0.360547,
2008-11-19, 01:41:05,VALID,1001.34,VALID,0,VALID,94.9719,VALID,0,VALID,23.7425,VALID,348,VALID,0.423047,
2008-11-19, 01:42:05,VALID,1001.33,VALID,0,VALID,94.949,VALID,0,VALID,23.7425,VALID,348,VALID,0.263281,
2008-11-19, 01:43:05,VALID,1001.35,VALID,0,VALID,95.0177,VALID,0,VALID,23.7407,VALID,348,VALID,0,
2008-11-19, 01:44:05,VALID,1001.38,VALID,0,VALID,95.0177,VALID,0,VALID,23.7619,VALID,348,VALID,0,
2008-11-19, 01:45:05,VALID,1001.41,VALID,0,VALID,94.9948,VALID,0,VALID,23.7619,VALID,348,VALID,0,
2008-11-19, 01:46:05,VALID,1001.38,VALID,0,VALID,95.0101,VALID,0,VALID,23.7619,VALID,348,VALID,0.322656,
2008-11-19, 01:47:05,VALID,1001.42,VALID,0,VALID,95.0024,VALID,0,VALID,23.7407,VALID,348,VALID,0.209375,
2008-11-19, 01:48:05,VALID,1001.39,VALID,0,VALID,94.9185,VALID,0,VALID,23.7407,VALID,348,VALID,0.455859,
2008-11-19, 01:49:05,VALID,1001.41,VALID,0,VALID,94.8117,VALID,0,VALID,23.723,VALID,348,VALID,0.439844,
2008-11-19, 01:50:05,VALID,1001.4,VALID,0,VALID,94.827,VALID,0,VALID,23.7035,VALID,348,VALID,0.452734,
2008-11-19, 01:51:05,VALID,1001.37,VALID,0,VALID,94.8346,VALID,0,VALID,23.6628,VALID,348,VALID,0.240625,
2008-11-19, 01:52:05,VALID,1001.36,VALID,0,VALID,94.7965,VALID,0,VALID,23.6646,VALID,348,VALID,0.187891,
2008-11-19, 01:53:05,VALID,1001.34,VALID,0,VALID,94.7965,VALID,0.100563,VALID,23.6452,VALID,348,VALID,0.244922,
2008-11-19, 01:54:05,VALID,1001.3,VALID,0,VALID,94.8728,VALID,0,VALID,23.6452,VALID,348,VALID,0.266016,
2008-11-19, 01:55:05,VALID,1001.28,VALID,0,VALID,94.949,VALID,0.100563,VALID,23.6434,VALID,348,VALID,0.227734,
2008-11-19, 01:56:05,VALID,1001.26,VALID,0,VALID,94.9262,VALID,0.100563,VALID,23.6628,VALID,348,VALID,0.00585938,
2008-11-19, 01:57:05,VALID,1001.27,VALID,0,VALID,94.949,VALID,0,VALID,23.6628,VALID,348,VALID,0.2625,
2008-11-19, 01:58:05,VALID,1001.28,VALID,0,VALID,94.8575,VALID,0,VALID,23.6841,VALID,348,VALID,0.544531,
2008-11-19, 01:59:05,VALID,1001.25,VALID,0,VALID,94.9872,VALID,0,VALID,23.7035,VALID,348,VALID,0.485938,
2008-11-19, 02:00:05,VALID,1001.29,VALID,0,VALID,94.9719,VALID,0,VALID,23.7212,VALID,348,VALID,0.610156,
2008-11-19, 02:01:05,VALID,1001.28,VALID,0,VALID,95.0177,VALID,0.100563,VALID,23.7601,VALID,348,VALID,0.380469,
2008-11-19, 02:02:05,VALID,1001.28,VALID,0,VALID,94.9414,VALID,0,VALID,23.8009,VALID,348,VALID,0.489062,
2008-11-19, 02:03:05,VALID,1001.3,VALID,0,VALID,94.9338,VALID,0,VALID,23.8203,VALID,348,VALID,0.488672,
2008-11-19, 02:04:05,VALID,1001.3,VALID,0,VALID,94.8804,VALID,0,VALID,23.8185,VALID,348,VALID,0.511719,
2008-11-19, 02:05:05,VALID,1001.25,VALID,0,VALID,94.9033,VALID,0,VALID,23.8398,VALID,348,VALID,0.533594,
2008-11-19, 02:06:05,VALID,1001.24,VALID,0,VALID,94.8575,VALID,0,VALID,23.8787,VALID,342,VALID,0.536328,
2008-11-19, 02:07:05,VALID,1001.24,VALID,0,VALID,94.8346,VALID,0,VALID,23.8787,VALID,338,VALID,0.451562,
2008-11-19, 02:08:05,VALID,1001.2,VALID,0,VALID,94.766,VALID,0,VALID,23.8982,VALID,338,VALID,0.494141,
2008-11-19, 02:09:05,VALID,1001.22,VALID,0,VALID,94.6744,VALID,0,VALID,23.8805,VALID,339,VALID,0.631641,
2008-11-19, 02:10:05,VALID,1001.18,VALID,0,VALID,94.7736,VALID,0,VALID,23.8982,VALID,339,VALID,0.615234,
2008-11-19, 02:11:05,VALID,1001.18,VALID,0,VALID,94.7202,VALID,0,VALID,23.9195,VALID,336,VALID,0.341016,
2008-11-19, 02:12:05,VALID,1001.17,VALID,0,VALID,94.621,VALID,0,VALID,23.8982,VALID,336,VALID,0.413672,
2008-11-19, 02:13:05,VALID,1001.17,VALID,0,VALID,94.6668,VALID,0,VALID,23.9389,VALID,334,VALID,0.605469,
2008-11-19, 02:14:05,VALID,1001.16,VALID,0,VALID,94.6515,VALID,0,VALID,23.9584,VALID,324,VALID,0.0765625,
2008-11-19, 02:15:05,VALID,1001.18,VALID,0,VALID,94.621,VALID,0,VALID,23.9566,VALID,324,VALID,0.554297,
2008-11-19, 02:16:05,VALID,1001.18,VALID,0,VALID,94.5523,VALID,0,VALID,23.9761,VALID,324,VALID,0.307031,
2008-11-19, 02:17:05,VALID,1001.17,VALID,0,VALID,94.3998,VALID,0,VALID,23.9566,VALID,335,VALID,0.286328,
2008-11-19, 02:18:05,VALID,1001.19,VALID,0,VALID,94.2853,VALID,0,VALID,23.9779,VALID,335,VALID,0.318359,
2008-11-19, 02:19:05,VALID,1001.2,VALID,0,VALID,94.2396,VALID,0,VALID,23.9797,VALID,335,VALID,0.283594,
2008-11-19, 02:20:05,VALID,1001.15,VALID,0,VALID,94.2472,VALID,0,VALID,23.9389,VALID,339,VALID,0.366016,
2008-11-19, 02:21:05,VALID,1001.16,VALID,0,VALID,94.2396,VALID,0,VALID,23.9177,VALID,340,VALID,0.318359,
2008-11-19, 02:22:05,VALID,1001.16,VALID,0,VALID,94.3921,VALID,0,VALID,23.9389,VALID,340,VALID,0.312891,
2008-11-19, 02:23:05,VALID,1001.14,VALID,0,VALID,94.3158,VALID,0,VALID,23.9389,VALID,347,VALID,0.541016,
2008-11-19, 02:24:05,VALID,1001.15,VALID,0,VALID,94.3692,VALID,0,VALID,23.9566,VALID,347,VALID,0.433594,
2008-11-19, 02:25:05,VALID,1001.13,VALID,0,VALID,94.3692,VALID,0,VALID,23.9566,VALID,347,VALID,0.579297,
2008-11-19, 02:26:05,VALID,1001.14,VALID,0,VALID,94.2853,VALID,0,VALID,23.9566,VALID,347,VALID,0.346484,
2008-11-19, 02:27:05,VALID,1001.14,VALID,0,VALID,94.3311,VALID,0.100563,VALID,23.9371,VALID,325,VALID,0.242969,
2008-11-19, 02:28:05,VALID,1001.12,VALID,0,VALID,94.3006,VALID,0,VALID,23.9159,VALID,326,VALID,0.419922,
2008-11-19, 02:29:05,VALID,1001.11,VALID,0,VALID,94.3235,VALID,0,VALID,23.9177,VALID,338,VALID,0.594922,
2008-11-19, 02:30:05,VALID,1001.14,VALID,0,VALID,94.354,VALID,0,VALID,23.8964,VALID,338,VALID,0.476172,
2008-11-19, 02:31:05,VALID,1001.1,VALID,0,VALID,94.3921,VALID,0,VALID,23.9371,VALID,343,VALID,0.583203,
2008-11-19, 02:32:05,VALID,1001.11,VALID,0,VALID,94.3235,VALID,0,VALID,23.9371,VALID,333,VALID,0.432422,
2008-11-19, 02:33:05,VALID,1001.06,VALID,0,VALID,94.2777,VALID,0,VALID,23.9371,VALID,325,VALID,0.441406,
2008-11-19, 02:34:05,VALID,1001.07,VALID,0,VALID,94.2853,VALID,0,VALID,23.9353,VALID,344,VALID,0.540234,
2008-11-19, 02:35:05,VALID,1001.09,VALID,0,VALID,94.293,VALID,0,VALID,23.9353,VALID,335,VALID,0.568359,
2008-11-19, 02:36:05,VALID,1001.06,VALID,0,VALID,94.2472,VALID,0,VALID,23.9548,VALID,351,VALID,0.768359,
2008-11-19, 02:37:05,VALID,1001.05,VALID,0,VALID,94.1785,VALID,0,VALID,23.9761,VALID,347,VALID,0.692187,
2008-11-19, 02:38:05,VALID,1001.07,VALID,0,VALID,94.1556,VALID,0,VALID,23.9548,VALID,344,VALID,0.477734,
2008-11-19, 02:39:05,VALID,1001.07,VALID,0,VALID,94.1328,VALID,0,VALID,23.9955,VALID,341,VALID,0.647266,
2008-11-19, 02:40:05,VALID,1001.07,VALID,0,VALID,94.1022,VALID,0,VALID,23.9937,VALID,344,VALID,0.582812,
2008-11-19, 02:41:05,VALID,1001.04,VALID,0,VALID,94.148,VALID,0,VALID,24.015,VALID,346,VALID,0.409375,
2008-11-19, 02:42:05,VALID,1001.03,VALID,0,VALID,94.1175,VALID,0,VALID,23.9937,VALID,346,VALID,0.429297,
2008-11-19, 02:43:05,VALID,1001.01,VALID,0,VALID,94.1251,VALID,0,VALID,24.015,VALID,25,VALID,0.477734,
2008-11-19, 02:44:05,VALID,1001.03,VALID,0,VALID,94.2548,VALID,0,VALID,24.0345,VALID,355,VALID,0.557813,
2008-11-19, 02:45:05,VALID,1001.02,VALID,0,VALID,94.1328,VALID,0.100563,VALID,24.0539,VALID,352,VALID,0.398828,
2008-11-19, 02:46:05,VALID,1001.02,VALID,0,VALID,94.3311,VALID,0,VALID,24.1123,VALID,33,VALID,0.804688,
2008-11-19, 02:47:05,VALID,1001.05,VALID,0,VALID,94.0183,VALID,0,VALID,24.2078,VALID,355,VALID,0.437891,
2008-11-19, 02:48:05,VALID,1001.05,VALID,0,VALID,93.7589,VALID,0,VALID,24.2681,VALID,355,VALID,0,
2008-11-19, 02:49:05,VALID,1001.06,VALID,0,VALID,93.5301,VALID,0,VALID,24.307,VALID,354,VALID,0.358594,
2008-11-19, 02:50:05,VALID,1001.09,VALID,0,VALID,93.3851,VALID,0,VALID,24.3459,VALID,1,VALID,0.601172,
2008-11-19, 02:51:05,VALID,1001.08,VALID,0,VALID,93.08,VALID,0.100563,VALID,24.3849,VALID,297,VALID,0.714063,
2008-11-19, 02:52:05,VALID,1001.1,VALID,0,VALID,92.6756,VALID,0,VALID,24.383,VALID,297,VALID,0.467578,
2008-11-19, 02:53:05,VALID,1001.09,VALID,0,VALID,92.5231,VALID,0,VALID,24.4043,VALID,320,VALID,0.0523437,
2008-11-19, 02:54:05,VALID,1001.12,VALID,0,VALID,92.4697,VALID,0,VALID,24.3849,VALID,322,VALID,0.460938,
2008-11-19, 02:55:05,VALID,1001.11,VALID,0,VALID,92.3781,VALID,0,VALID,24.3849,VALID,322,VALID,0,
2008-11-19, 02:56:05,VALID,1001.12,VALID,0,VALID,92.3476,VALID,0,VALID,24.3636,VALID,328,VALID,0.0808594,
2008-11-19, 02:57:05,VALID,1001.13,VALID,0,VALID,92.3476,VALID,0.100563,VALID,24.3246,VALID,332,VALID,0.00195313,
2008-11-19, 02:58:05,VALID,1001.14,VALID,0,VALID,92.34,VALID,0,VALID,24.3246,VALID,332,VALID,0.245312,
2008-11-19, 02:59:04,VALID,1001.16,VALID,0,VALID,92.2789,VALID,0,VALID,24.2857,VALID,331,VALID,0.353516,
2008-11-19, 03:00:04,VALID,1001.15,VALID,0,VALID,92.3781,VALID,0,VALID,24.2468,VALID,331,VALID,0,
2008-11-19, 03:01:04,VALID,1001.15,VALID,0,VALID,92.4163,VALID,0,VALID,24.2486,VALID,331,VALID,0,
2008-11-19, 03:02:04,VALID,1001.14,VALID,0,VALID,92.4697,VALID,0,VALID,24.1884,VALID,334,VALID,0.410156,
2008-11-19, 03:03:04,VALID,1001.13,VALID,0,VALID,92.5231,VALID,0,VALID,24.1689,VALID,346,VALID,0.448828,
2008-11-19, 03:04:04,VALID,1001.12,VALID,0,VALID,92.607,VALID,0,VALID,24.1513,VALID,351,VALID,0.414453,
2008-11-19, 03:05:04,VALID,1001.09,VALID,0,VALID,92.6604,VALID,0,VALID,24.1105,VALID,351,VALID,0.191797,
2008-11-19, 03:06:04,VALID,1001.12,VALID,0,VALID,92.729,VALID,0,VALID,24.1123,VALID,351,VALID,0.135156,
2008-11-19, 03:07:04,VALID,1001.13,VALID,0,VALID,92.7443,VALID,0,VALID,24.091,VALID,351,VALID,0.454297,
2008-11-19, 03:08:04,VALID,1001.12,VALID,0,VALID,92.7748,VALID,0.100563,VALID,24.0716,VALID,352,VALID,0.623438,
2008-11-19, 03:09:04,VALID,1001.11,VALID,0,VALID,92.7748,VALID,0,VALID,24.0929,VALID,352,VALID,0.489844,
2008-11-19, 03:10:04,VALID,1001.13,VALID,0,VALID,92.7443,VALID,0.100563,VALID,24.0716,VALID,352,VALID,0.653125,
2008-11-19, 03:11:04,VALID,1001.12,VALID,0,VALID,92.8282,VALID,0.100563,VALID,24.0326,VALID,353,VALID,0.557422,
2008-11-19, 03:12:04,VALID,1001.13,VALID,0,VALID,92.8969,VALID,0.100563,VALID,24.0132,VALID,350,VALID,0.801562,
2008-11-19, 03:13:04,VALID,1001.12,VALID,0,VALID,92.9426,VALID,0,VALID,24.0539,VALID,356,VALID,0.710156,
2008-11-19, 03:14:04,VALID,1001.11,VALID,0,VALID,92.9198,VALID,0,VALID,24.0326,VALID,351,VALID,0.686328,
2008-11-19, 03:15:04,VALID,1001.11,VALID,0,VALID,92.9198,VALID,0,VALID,23.9937,VALID,346,VALID,0.564453,
2008-11-19, 03:16:04,VALID,1001.1,VALID,0,VALID,92.8816,VALID,0,VALID,24.0132,VALID,345,VALID,0.545313,
2008-11-19, 03:17:04,VALID,1001.07,VALID,0,VALID,92.8892,VALID,0,VALID,23.9937,VALID,345,VALID,0.559766,
2008-11-19, 03:18:04,VALID,1001.04,VALID,0,VALID,92.9274,VALID,0.100563,VALID,23.9742,VALID,345,VALID,0.441797,
2008-11-19, 03:19:04,VALID,1001.01,VALID,0,VALID,93.0037,VALID,0,VALID,23.9761,VALID,345,VALID,0.409375,
2008-11-19, 03:20:04,VALID,1001,VALID,0,VALID,93.141,VALID,0,VALID,23.9371,VALID,345,VALID,0.410547,
2008-11-19, 03:21:04,VALID,1000.97,VALID,0,VALID,93.1944,VALID,0.100563,VALID,23.8964,VALID,345,VALID,0.411328,
2008-11-19, 03:22:04,VALID,1000.97,VALID,0,VALID,93.3394,VALID,0.100563,VALID,23.8769,VALID,346,VALID,0.375781,
2008-11-19, 03:23:04,VALID,1000.95,VALID,0,VALID,93.4843,VALID,0,VALID,23.8575,VALID,346,VALID,0.300391,
2008-11-19, 03:24:04,VALID,1000.92,VALID,0,VALID,93.6064,VALID,0,VALID,23.8593,VALID,346,VALID,0.434766,
2008-11-19, 03:25:04,VALID,1000.93,VALID,0,VALID,93.7361,VALID,0,VALID,23.8398,VALID,346,VALID,0.490234,
2008-11-19, 03:26:04,VALID,1000.92,VALID,0,VALID,93.7818,VALID,0,VALID,23.9,VALID,347,VALID,0.310937,
2008-11-19, 03:27:04,VALID,1000.92,VALID,0,VALID,93.7361,VALID,0,VALID,23.8824,VALID,347,VALID,0.278906,
2008-11-19, 03:28:04,VALID,1000.94,VALID,0,VALID,93.8963,VALID,0,VALID,23.8611,VALID,347,VALID,0.458984,
2008-11-19, 03:29:04,VALID,1000.98,VALID,0,VALID,93.8276,VALID,0,VALID,23.8398,VALID,347,VALID,0.350391,
2008-11-19, 03:30:04,VALID,1000.99,VALID,0,VALID,93.8352,VALID,0,VALID,23.8027,VALID,347,VALID,0.0289063,
2008-11-19, 03:31:04,VALID,1001.02,VALID,0,VALID,93.9573,VALID,0,VALID,23.8027,VALID,347,VALID,0,
2008-11-19, 03:32:04,VALID,1001.01,VALID,0,VALID,94.0031,VALID,0,VALID,23.7832,VALID,347,VALID,0.00078125,
2008-11-19, 03:33:04,VALID,1001.01,VALID,0,VALID,94.0183,VALID,0,VALID,23.8027,VALID,347,VALID,0.192578,
2008-11-19, 03:34:04,VALID,1001.02,VALID,0,VALID,94.0031,VALID,0,VALID,23.7832,VALID,347,VALID,0,
2008-11-19, 03:35:04,VALID,1001.04,VALID,0,VALID,94.1633,VALID,0,VALID,23.7637,VALID,347,VALID,0.00195313,
2008-11-19, 03:36:04,VALID,1001.04,VALID,0,VALID,94.2243,VALID,0,VALID,23.7619,VALID,347,VALID,0.0117188,
2008-11-19, 03:37:04,VALID,1001.04,VALID,0,VALID,94.2167,VALID,0,VALID,23.8009,VALID,347,VALID,0.302734,
2008-11-19, 03:38:04,VALID,1001.03,VALID,0,VALID,94.1785,VALID,0,VALID,23.7814,VALID,347,VALID,0,
2008-11-19, 03:39:04,VALID,1001,VALID,0,VALID,94.2777,VALID,0,VALID,23.7814,VALID,347,VALID,0.00273437,
2008-11-19, 03:40:04,VALID,1000.98,VALID,0,VALID,94.354,VALID,0,VALID,23.7991,VALID,347,VALID,0.0574219,
2008-11-19, 03:41:04,VALID,1000.97,VALID,0,VALID,94.3921,VALID,0.100563,VALID,23.838,VALID,347,VALID,0.69375,
2008-11-19, 03:42:04,VALID,1000.94,VALID,0,VALID,94.3998,VALID,0.100563,VALID,23.8593,VALID,347,VALID,0.496875,
2008-11-19, 03:43:04,VALID,1000.94,VALID,0,VALID,94.3616,VALID,0,VALID,23.8982,VALID,346,VALID,0.656641,
2008-11-19, 03:44:04,VALID,1000.91,VALID,0,VALID,94.3464,VALID,0.100563,VALID,23.8787,VALID,355,VALID,0.4875,